Wind_Speed
8 8 9 9 9 9 9 9 9 9 9 9 9 8 8 7 7 7 7 7 7 6 6 6 5 6 6 5 5 5 5 5 4 4 4 3 3 3 2 2 3 3 3
8 8 8 9 9 9 9 10 10 10 10 10 10 9 9 8 8 8 8 8 8 7 7 6 6 6 6 6 5 5 5 4 4 4 4 3 3 3 3 3 3 3 3
8 8 9 9 10 10 10 10 11 11 11 11 10 10 10 10 9 9 9 9 9 9 9 8 7 7 7 7 6 6 6 5 4 4 4 4 4 4 4 4 3 3 3
8 8 9 9 10 10 11 11 11 12 12 12 12 11 11 11 10 10 10 10 10 10 10 9 9 9 8 7 7 7 6 6 5 5 5 5 5 5 5 5 5 5 5
7 8 8 9 10 10 10 11 12 12 12 12 12 12 12 11 11 11 11 11 11 11 10 10 10 10 10 9 8 8 8 7 7 7 7 7 6 6 7 7 7 7 7
7 7 7 8 9 10 10 11 11 11 12 12 12 12 12 12 12 11 11 11 11 11 10 10 11 11 11 10 10 9 9 9 9 9 8 8 8 8 8 9 9 8 8
6 6 7 7 8 8 9 10 10 10 11 12 13 12 12 12 12 12 12 12 11 11 11 11 11 11 11 11 11 11 11 10 10 10 10 9 10 10 9 9 10 10 9
6 6 6 7 7 7 7 9 9 9 10 11 12 12 13 13 13 12 12 12 12 12 12 11 11 11 12 12 12 12 12 12 11 11 11 11 11 12 11 11 11 11 11
6 6 6 6 6 6 7 8 8 8 9 10 11 12 13 13 12 12 12 12 12 13 13 12 12 12 11 12 12 12 12 12 12 12 11 11 11 11 11 11 11 11 11
6 5 5 5 5 6 6 6 7 8 9 9 11 11 12 12 12 12 12 12 12 12 12 12 12 12 11 11 11 12 12 12 12 12 11 11 11 11 11 11 11 11 11
5 5 5 5 5 6 6 6 6 7 8 8 9 10 10 11 11 11 11 11 11 11 12 12 12 11 12 12 11 12 12 12 12 12 11 11 12 12 12 12 12 12 11
5 5 5 5 5 6 6 6 6 6 7 7 8 9 11 11 11 11 10 10 11 11 11 11 12 12 12 12 12 12 13 13 13 12 12 12 11 12 12 13 13 12 12
5 5 5 6 6 6 6 6 6 6 6 7 7 8 9 10 11 10 10 11 11 11 11 12 12 13 13 13 12 12 12 12 13 13 13 13 12 12 12 12 12 12 12
5 6 6 6 6 6 6 6 6 6 6 7 7 7 8 9 10 10 10 11 12 12 12 12 12 13 13 13 13 12 12 12 13 13 13 14 14 13 13 13 12 13 13
5 6 6 6 7 7 7 7 7 6 6 7 7 7 8 8 8 8 10 10 11 12 12 12 12 12 13 13 13 13 13 13 13 13 13 13 13 13 13 12 13 14 14
5 6 6 7 7 7 7 7 6 6 6 7 7 7 8 8 8 9 9 10 10 11 12 12 12 13 13 13 13 13 13 13 13 13 14 14 14 14 13 13 13 13 14
6 6 6 7 7 7 7 7 7 6 7 7 8 8 8 8 8 9 10 10 11 11 12 12 12 13 13 13 13 12 12 13 13 14 14 14 15 15 15 14 14 15 15
6 6 7 7 7 7 7 7 7 7 7 7 8 8 8 8 9 9 10 10 10 11 12 12 12 12 12 12 12 12 12 13 13 14 15 15 15 15 16 16 16 15 16
6 6 6 7 7 7 7 7 7 7 7 7 7 7 8 8 9 9 9 10 10 10 11 11 12 12 12 12 12 12 12 13 13 14 15 15 15 16 16 16 16 17 16
7 7 6 6 7 7 7 7 7 7 7 7 7 7 7 8 8 9 9 10 10 10 10 11 11 12 12 11 11 12 13 13 13 13 14 14 15 16 16 16 16 16 16
7 8 7 7 7 8 8 8 8 8 7 7 8 8 7 8 9 9 9 10 9 10 10 11 11 11 11 12 12 12 12 13 13 13 14 15 15 16 16 15 15 15 15
9 9 9 8 8 9 9 9 9 9 9 9 9 9 8 9 9 10 10 10 10 10 11 11 11 10 11 12 13 13 13 13 13 14 15 15 16 16 16 17 17 16 17
9 9 9 9 9 9 9 9 9 9 9 9 9 9 9 10 10 10 11 11 11 11 12 12 11 12 12 13 13 13 13 13 13 14 14 15 16 16 16 17 17 17 18
10 10 10 10 9 9 9 8 8 8 9 9 9 10 10 10 10 11 12 12 12 12 12 13 13 13 13 13 13 13 14 14 14 14 15 15 16 16 16 17 17 17 18
11 11 10 10 10 10 9 9 9 9 9 10 10 10 10 11 11 12 12 12 12 13 13 13 14 14 14 14 14 14 15 14 15 15 15 16 16 17 17 18 18 18 17
12 12 12 11 11 10 10 10 10 10 10 11 11 11 12 12 12 12 12 12 13 13 13 13 14 14 14 15 15 15 16 16 16 16 16 17 17 18 18 18 17 17 17
Wind_Direction
249 247 243 241 239 239 240 241 241 240 237 235 234 231 229 231 228 221 215 209 205 203 199 195 193 192 187 180 181 180 179 178 178 172 172 175 172 169 175 173 185 189 178
253 251 248 248 247 244 244 245 246 245 242 239 237 234 232 233 231 228 220 218 216 214 211 209 206 203 202 197 201 203 199 200 197 195 196 204 208 208 210 212 210 211 202
256 255 254 253 250 249 247 247 249 249 246 243 241 241 239 236 233 230 229 229 224 222 219 218 216 216 213 210 216 218 215 212 210 214 215 221 227 230 236 237 234 230 231
260 258 256 255 252 250 249 248 252 252 250 246 245 245 243 240 239 235 236 236 231 228 226 223 223 224 222 220 225 228 229 229 228 231 236 240 238 239 243 250 251 252 254
264 262 259 256 254 252 252 252 256 254 250 247 245 245 244 242 240 239 238 237 236 232 230 228 228 225 228 228 232 236 240 242 243 244 244 243 244 247 248 251 256 253 255
266 265 264 261 257 254 254 255 257 254 250 244 241 242 243 244 241 240 241 237 237 237 237 232 232 231 232 233 236 239 242 245 250 249 247 247 248 249 251 253 255 255 260
271 268 267 264 262 258 257 257 256 254 250 243 238 239 242 242 241 241 243 243 242 241 239 235 234 237 239 238 239 244 245 247 251 249 248 250 250 249 254 256 255 258 264
273 271 268 267 269 265 260 260 256 251 245 239 237 238 240 241 242 245 245 245 246 245 243 239 239 244 245 246 245 247 248 250 253 250 251 251 252 254 258 260 259 260 263
280 278 275 273 271 268 267 265 260 251 245 241 241 241 242 243 244 245 245 245 245 245 244 244 242 245 247 250 247 248 250 251 252 252 252 252 253 255 258 261 261 259 260
283 279 277 277 278 273 270 264 258 253 249 246 244 245 244 244 244 246 245 244 245 245 246 246 245 249 251 251 252 251 251 253 253 252 252 253 253 255 257 260 260 263 262
286 284 286 286 288 286 278 271 264 258 252 249 247 246 244 243 243 244 247 249 245 245 246 249 249 250 252 253 255 254 253 254 255 255 254 255 256 258 261 264 263 266 266
290 289 293 293 294 291 283 279 274 268 258 255 253 250 246 245 246 246 249 251 250 249 250 250 248 251 252 255 256 256 255 255 255 255 256 258 258 260 263 264 267 268 270
293 294 295 296 296 292 289 287 280 274 264 260 257 254 253 250 249 249 252 253 251 251 253 255 251 250 253 256 260 260 259 260 258 256 255 257 261 263 263 265 268 269 271
291 295 298 301 304 299 291 287 282 275 267 262 260 257 259 255 252 250 252 255 256 258 256 257 257 255 255 258 261 261 263 263 260 258 258 258 262 265 266 265 266 270 272
292 296 298 299 302 302 296 288 284 279 270 264 263 263 261 261 257 258 258 258 260 262 260 260 260 259 260 259 259 261 263 262 263 260 258 258 260 263 264 267 269 271 273
292 294 297 299 302 304 300 291 285 280 274 268 266 266 265 263 263 269 268 264 264 263 264 263 260 261 260 260 261 263 264 265 263 261 258 259 262 264 265 264 269 272 274
293 294 297 298 300 303 303 293 285 281 276 273 272 269 266 266 267 271 272 269 269 266 267 264 262 262 262 262 263 264 263 264 262 261 260 260 262 263 265 267 269 273 275
296 296 299 301 298 301 301 294 286 284 279 276 273 269 268 268 270 272 275 276 276 274 271 268 267 262 262 265 266 265 266 262 262 263 261 261 262 263 265 267 270 273 275
297 299 300 301 298 298 297 292 287 284 281 277 272 270 269 269 272 275 276 277 277 275 271 269 270 267 264 266 267 268 269 265 262 263 264 264 265 268 269 270 273 275 276
299 300 300 298 300 300 298 294 290 287 281 274 270 268 267 270 274 277 277 277 277 276 273 269 270 267 266 266 268 270 272 270 267 266 266 266 267 269 270 273 274 276 277
299 299 300 298 298 298 295 293 289 287 283 278 275 272 270 272 278 281 279 278 277 277 275 273 272 270 268 267 268 270 272 271 271 271 271 273 272 272 273 275 277 279 280
299 296 296 297 295 295 293 289 287 284 281 277 276 275 273 276 280 281 281 279 277 277 276 276 272 272 274 272 271 270 271 271 273 273 275 276 276 275 275 276 279 280 280
296 294 292 293 293 293 292 287 285 284 282 278 276 273 273 276 280 280 281 281 279 279 277 274 271 270 272 275 274 273 273 273 273 276 277 277 277 277 278 279 279 278 277
292 292 292 292 293 293 293 291 288 286 281 280 278 275 274 276 279 278 280 280 279 278 276 273 269 270 272 274 275 275 276 277 276 276 278 279 279 280 279 280 281 280 277
289 289 290 291 292 290 287 288 288 288 284 281 280 279 274 276 280 279 280 277 277 279 279 275 271 270 271 272 272 274 275 277 277 276 278 278 279 279 280 281 282 280 278
285 285 285 287 288 286 285 285 286 285 285 283 282 280 277 277 280 280 279 279 279 280 280 278 275 272 271 271 271 272 274 276 278 278 278 278 279 280 280 281 281 279 277
Height
5862 5862 5863 5863 5864 5864 5865 5866 5866 5866 5867 5867 5868 5868 5869 5870 5870 5871 5872 5872 5873 5874 5874 5875 5875 5876 5877 5877 5878 5878 5879 5879 5880 5881 5882 5882 5883 5884 5884 5885 5885 5886 5886
5860 5861 5862 5862 5863 5863 5864 5864 5865 5865 5865 5866 5867 5867 5868 5869 5869 5870 5871 5872 5872 5873 5874 5874 5875 5876 5877 5877 5878 5879 5879 5880 5880 5881 5881 5882 5883 5884 5884 5885 5885 5886 5886
5859 5860 5860 5861 5861 5862 5862 5863 5863 5863 5864 5864 5865 5866 5867 5867 5868 5869 5870 5871 5872 5872 5873 5874 5874 5875 5876 5877 5878 5878 5879 5880 5880 5881 5881 5882 5883 5883 5884 5885 5885 5886 5886
5858 5858 5858 5859 5859 5860 5860 5861 5861 5861 5861 5862 5863 5864 5865 5866 5867 5868 5869 5870 5870 5871 5872 5873 5874 5875 5876 5876 5877 5878 5878 5879 5880 5880 5881 5881 5882 5883 5884 5884 5885 5885 5886
5856 5856 5857 5857 5857 5858 5858 5858 5858 5858 5858 5860 5861 5862 5864 5865 5866 5866 5867 5868 5869 5869 5870 5871 5872 5874 5875 5875 5876 5877 5878 5878 5879 5879 5880 5881 5881 5882 5883 5884 5884 5884 5885
5855 5855 5855 5855 5855 5856 5856 5856 5856 5856 5856 5857 5859 5860 5862 5863 5864 5865 5866 5866 5867 5868 5869 5870 5871 5872 5873 5874 5875 5876 5877 5877 5878 5879 5879 5880 5880 5881 5882 5882 5883 5883 5884
5854 5854 5854 5854 5854 5854 5854 5854 5854 5854 5854 5855 5857 5859 5860 5861 5862 5863 5864 5865 5866 5867 5868 5869 5870 5871 5872 5873 5874 5874 5875 5876 5876 5877 5878 5879 5879 5880 5880 5881 5881 5882 5882
5852 5852 5852 5852 5852 5853 5853 5853 5853 5853 5853 5853 5855 5857 5858 5859 5860 5862 5863 5864 5865 5865 5866 5867 5868 5869 5870 5871 5872 5873 5873 5874 5875 5875 5876 5877 5878 5878 5879 5879 5879 5880 5880
5851 5851 5851 5851 5851 5851 5851 5851 5851 5852 5852 5853 5854 5855 5856 5857 5859 5860 5861 5862 5863 5864 5865 5865 5866 5867 5868 5869 5870 5870 5871 5872 5873 5874 5874 5875 5876 5876 5877 5877 5878 5878 5878
5850 5850 5850 5850 5850 5850 5850 5850 5850 5851 5851 5852 5853 5854 5854 5856 5857 5858 5859 5860 5861 5862 5863 5864 5865 5865 5866 5867 5868 5869 5869 5870 5871 5872 5872 5873 5873 5874 5875 5875 5875 5876 5876
5849 5849 5849 5849 5849 5849 5849 5849 5849 5849 5850 5851 5851 5852 5853 5854 5855 5856 5857 5858 5859 5860 5861 5862 5863 5864 5864 5865 5866 5867 5867 5868 5869 5870 5870 5871 5871 5872 5873 5873 5874 5874 5874
5848 5848 5848 5848 5848 5848 5848 5848 5848 5848 5849 5849 5850 5851 5851 5852 5853 5854 5855 5856 5857 5858 5859 5860 5861 5862 5862 5863 5864 5864 5865 5866 5867 5868 5868 5869 5869 5870 5871 5871 5872 5872 5872
5847 5847 5847 5847 5847 5847 5847 5847 5847 5847 5848 5848 5849 5849 5850 5851 5852 5853 5854 5855 5855 5856 5857 5858 5859 5859 5860 5861 5862 5862 5863 5864 5865 5865 5866 5867 5867 5868 5868 5869 5869 5870 5870
5846 5846 5846 5846 5846 5846 5846 5846 5846 5846 5847 5847 5847 5848 5848 5849 5850 5851 5852 5853 5853 5854 5855 5856 5856 5857 5858 5859 5859 5860 5861 5862 5862 5863 5864 5865 5865 5866 5866 5867 5867 5868 5868
5846 5845 5845 5845 5845 5845 5844 5844 5845 5845 5845 5846 5846 5847 5847 5848 5848 5849 5850 5851 5851 5852 5853 5854 5854 5855 5856 5856 5857 5858 5858 5859 5860 5861 5862 5862 5863 5864 5864 5864 5865 5865 5866
5845 5844 5844 5844 5844 5844 5843 5843 5843 5844 5844 5844 5845 5845 5845 5846 5847 5847 5848 5849 5849 5850 5851 5851 5852 5852 5853 5854 5855 5855 5856 5856 5857 5858 5859 5860 5860 5861 5862 5862 5862 5863 5863
5844 5844 5843 5843 5843 5843 5842 5842 5842 5842 5843 5843 5843 5843 5844 5844 5845 5846 5846 5847 5847 5848 5848 5849 5849 5850 5850 5851 5852 5853 5853 5854 5855 5856 5856 5857 5858 5858 5859 5859 5860 5860 5860
5842 5842 5842 5842 5842 5841 5841 5841 5841 5841 5841 5841 5842 5842 5842 5843 5843 5844 5844 5844 5845 5845 5846 5846 5847 5847 5848 5849 5849 5850 5850 5851 5852 5852 5853 5854 5854 5855 5856 5856 5857 5857 5857
5841 5841 5841 5841 5841 5840 5840 5840 5840 5840 5840 5840 5840 5841 5841 5841 5841 5842 5842 5843 5843 5843 5843 5844 5844 5845 5845 5846 5846 5847 5847 5848 5849 5849 5850 5851 5851 5852 5852 5853 5853 5853 5853
5840 5840 5840 5840 5839 5839 5839 5839 5839 5839 5839 5839 5839 5839 5839 5839 5840 5840 5840 5841 5841 5841 5841 5842 5842 5842 5843 5843 5844 5844 5845 5845 5846 5846 5847 5847 5848 5849 5849 5849 5849 5849 5850
5839 5838 5838 5838 5838 5838 5838 5837 5837 5837 5837 5837 5837 5837 5838 5838 5838 5838 5838 5838 5839 5839 5839 5839 5840 5840 5840 5841 5841 5842 5842 5843 5843 5843 5843 5844 5845 5845 5846 5845 5846 5846 5846
5837 5837 5836 5836 5836 5836 5836 5836 5835 5835 5835 5835 5835 5836 5836 5836 5836 5836 5836 5836 5836 5837 5837 5837 5837 5837 5838 5838 5839 5839 5840 5840 5840 5840 5840 5841 5841 5841 5842 5842 5842 5842 5842
5836 5835 5835 5835 5835 5834 5834 5834 5833 5833 5833 5833 5834 5834 5834 5834 5834 5834 5834 5834 5834 5834 5834 5834 5835 5835 5835 5836 5836 5837 5837 5837 5837 5837 5837 5837 5838 5838 5838 5838 5838 5838 5838
5834 5834 5833 5833 5833 5832 5832 5832 5832 5831 5831 5831 5831 5831 5831 5831 5831 5831 5831 5831 5831 5831 5831 5831 5832 5832 5832 5833 5833 5833 5833 5833 5834 5834 5834 5834 5834 5834 5834 5834 5834 5834 5834
5832 5832 5831 5831 5830 5830 5830 5830 5830 5829 5829 5829 5829 5829 5829 5829 5829 5828 5828 5828 5828 5828 5828 5828 5828 5829 5829 5829 5829 5830 5830 5830 5830 5830 5830 5830 5830 5829 5829 5829 5829 5829 5829
5829 5829 5829 5828 5828 5828 5828 5828 5827 5827 5827 5826 5826 5826 5826 5826 5826 5826 5825 5825 5825 5824 5824 5824 5824 5825 5825 5825 5826 5826 5826 5826 5826 5826 5826 5826 5826 5825 5825 5824 5824 5824 5825